Погода в Туле

Погода в Туле : погода сейчас, прогноз погоды и архив. Всё, что Вы хотите узнать о погоде в Туле!

Хотите узнать прогноз погоды в Туле? Тогда Вам сюда: Погода в Туле

Поиск расширенной информации на нашем сайте:

Другие новости

Новости СМИ2

Главная страница сайта

Новости сайта

03.07.2017

Напоминаем, что на нашем специализированном сайте Метеоцентр.Азия вы можете получить высокодетализированные автоматические прогнозы погоды по пунктам России, СНГ и мира в авиационном формате (включающие направление и скорость ветра, видимость, явления погоды, количество и форму облачности, нижнюю и верхнюю границу облачности).


Погода в Туле - сегодня

Время (UTC), дата Ветер
(°,м/с) 
Видим.   Явления Облачность Т
(°С)
Тd
(°С)
f(%) Тe
(°С)
Pmin
(гПа)
dP
(гПа)
Po
(мм)
O2
(г/м3)
Тmin Tmax R s Состояние
почвы
00 18.11.17 190 (Ю) 10 км    9/0 средняя 
[Ac trans]
+1.3 -1.2 83 1020.4  -1  746  299           
03 18.11.17 200 (Ю) 10 км    9/0 средняя 
[Ac trans]
+1.4 -0.8 85 1019.6  -0.7  746  299  -0.2         
06 18.11.17 210 (ЮЗ) 10 км    9/3 1000 м средняя 
[Sc|Ac trans]
+1.4 -0.8 85 +1  1020  0.4  746  299  -0.2         
09 18.11.17 230 (ЮЗ) 10 км    10/8 600 м кучево-дожд., средняя 
[Cb calv|Ac und]
+2.3 -1.3 77 +1  1019.8  0.1  746  298           
12 18.11.17 210 (ЮЗ) 10 км    10/9 600 м средняя 
[Sc|Ac und]
+3 -0.9 76 +2  1018.8  -1.2  745  297           
15 18.11.17 180 (Ю) 10 км    10/8 1000 м средняя 
[Sc|Ac und]
+2 -1.4 78 +1  1018.1  -0.4  745  298           
18 18.11.17 140 (ЮВ) 10 км    10/10 1000 м 
[Sc]
+1.8 -0.7 83 +1  1017.5  -0.9  744  298    +3       
21 18.11.17 150 (ЮВ) 4000 м  слаб. дождь  10/10 300 м 
[Frnb|Ns]
+0.9 +0.1 94 1016.6  -1  743  298           
00 19.11.17 160 (Ю) 4000 м  слаб. снег{дождь}  10/10 300 м 
[Frnb|Ns]
+0.8 +0 94 -1  1015  -1.6  742  298           
03 19.11.17 150 (ЮВ) 2000 м  слаб. снег  10/10 300 м 
[Frnb|Ns]
+0.6 -0.3 94 -1  1013.1  -1.5  741  298  +0.5       
06 19.11.17 160 (Ю) 2000 м  дымка{снег}  10/10 300 м 
[Frnb|Ns]
+0.9 -0 94 -1  1012.9  -0.5  741  297  +0.5       
09 19.11.17 140 (ЮВ) 4000 м  в посл. час дождь{снег}  10/10 300 м 
[Frnb|Ns]
+1.3 +0.2 92 1011.8  -1.1  740  297           
12 19.11.17 140 (ЮВ) 4000 м  слаб. снег  10/10 300 м 
[Frnb|Ns]
+1.3 +0.3 93 +1  1010.4  -1.3  739  296           
15 19.11.17 140 (ЮВ) 4000 м  дымка{снег}  10/10 1000 м 
[Sc]
+1.1 +0.1 93 1009.4  -0.7  738  296      0.7     
18 19.11.17 160 (Ю) 4000 м  слаб. ливневой снег  10/10 600 м кучево-дожд. 
[Cb calv]
+0.6 -0.2 94 1008.9  -0.8  738  297    +1.4     
21 19.11.17 190 (Ю) 4000 м  слаб. ливневой снег  10/10 600 м кучево-дожд. 
[Cb calv]
+0.7 +0.1 96 1009.1  0.2  738  296           
00 20.11.17 220 (ЮЗ) 4000 м  дымка{ливн. осадки}  10/10 600 м кучево-дожд. 
[Cb calv]
+0.9 +0.1 94 1010.1  0.9  738  296           
03 20.11.17 250 (З) 4000 м  дымка  10/10 1000 м 
[Sc diur, vesp]
+0.9 +0.1 94 +2  1011  0.9  739  297  +0.3       
06 20.11.17 190 (Ю) 4000 м  дымка  9/8 1000 м средняя 
[Sc|Ac trans]
+0.4 -0.6 93 +1  1012.2  1.2  740  298  +0.3       
09 20.11.17 240 (ЮЗ) 4000 м  дымка  10/10 1000 м 
[Sc]
+1.8 -1 82 +3  1013.3  1.2  741  297           
12 20.11.17 020 (С) 10 км    10/10 600 м 
[Sc]
+2 -1.4 78 +3  1012.7  -0.6  740  296           
15 20.11.17 020 (С) 10 км    10/10 1000 м 
[Sc]
+0.9 -0.6 90 +2  1012.2  -0.6  740  297           
18 20.11.17 050 (СВ) 4000 м  слаб. снег  10/10 300 м 
[Frnb|Ns]
-0.1 -0.9 94 +1  1010.9  -1.3  739  298    +2.1  0.4     
21 20.11.17 010 (С) 2000 м  снег  10/10 200 м 
[Frnb|Ns]
-0.7 -1.1 97 -2  1009  -2  738  298           
00 21.11.17 350 (С) 2000 м  слаб. снег  10/10 200 м 
[Frnb|Ns]
-0.9 -1.2 98 -3  1007.1  -1.9  736  298           
Время (UTC), дата Ветер
(°,м/с) 
Видим.   Явления Облачность Т
(°С)
Тd
(°С)
f(%) Тe
(°С)
Pmin
(гПа)
dP
(гПа)
Po
(мм)
O2
(г/м3)
Тmin Tmax R s Состояние
почвы

Для получения пояснительной информации подведите курсор к названию столбца.

ПОГОДА в Туле - архив

Всё, что Вы хотите узнать о погоде в Туле - удобно и подробно!

Выберите нужную дату (начиная с 1 января 2015* года) и нажмите кнопку "Найти".
Будут отображены архивные сводки погоды по пункту Тула, начиная с указанной даты.


Отображать данные в формате CSV (для использования в таблицах Excel)


Внимание! Наш архив погоды предназначен исключительно для личного некоммерческого использования в познавательных целях. Если Вам необходимы официальные справки о состоянии погоды (для производственных, юридических, коммерческих и т.п. целей), обращайтесь в органы Росгидромета.

*Примечание: данная дата относится к архиву по метеостанциям СССР (Россия, СНГ, Балтия).
Архив по метеостанциям Зарубежной Европы и Азии (кроме Китая) хранится 10 дней, по другим регионам земного шара (Китай, Африка, Америка, Австралия, Океания) - 1 день.

Тула - район местоположения метеостанции


Название, широта, долгота, высота метеостанции:
Тула 54.2°ш. 37.6°д. 203 м над ур. моря [Российская Федерация]

Дополнительная информация

В oтличие oт бoльшинства пoгoдных сайтoв мы публикуем пoдрoбную метеoинфoрмацию в детальнoм прoфессиoнальнoм фoрмате.

Характеристики температуры и влажнoсти вoздуха измеряются на высoте 2 м в тени вдали oт зданий и деревьев.
Скoрoсть ветра измеряется на высoте 10 м (на урoвне рoста челoвека скoрoсть ветра ниже в 1.5-2 раза). Если метеoстанция нахoдится в гoрoде или в лесу, тo скoрoсть ветра занижена на 2-4 м/с пo сравнению с oткрытым местoм. Скoрoсть ветра над акватoриями крупных рек и oзёр, а также на вершинах хoлмoв на 2-5 м/с выше, чем в oбычных услoвиях.
Атмoсфернoе давление в разных тoчках местнoсти мoжет значительнo oтличаться oт давления на метеoстанции, в зависимoсти oт услoвий рельефа (при пoдъёме на 10 м давление пoнижается примернo на 1 мм рт.ст.).